Regional Weather Roundup
Issued by NWS

Home | Current Version | Previous Version | Text Only | Print | Product List | Glossary Off
Versions: 1 2 3 4 5 6 7 8 9 10 11 12 13 14 15 16 17 18 19 20 21 22 23 24 25 26 27 28 29 30 31 32 33 34 35 36 37 38 39 40 41 42 43 44 45 46 47 48 49 50

000
ASUS43 KOAX 010110
RWRNE

WEATHER ROUNDUP FOR NEBRASKA
NATIONAL WEATHER SERVICE OMAHA NE
800 PM CDT MON AUG 31 2015

NOTES: SATELLITE DATA IS BEING USED TO AUGMENT CLOUD COVER ABOVE
       12000 FEET.
       "FAIR" INDICATES FEW OR NO CLOUDS BELOW 12,000 FEET WITH NO
       SIGNIFICANT WEATHER AND/OR OBSTRUCTIONS TO VISIBILITY.

  * THESE STATIONS DO NOT REPORT WEATHER SUCH AS RAIN...SNOW OR FOG.

NEZ001>004-019>022-054>056-010200-
NEBRASKA PANHANDLE

CITY           SKY/WX    TMP DP  RH WIND       PRES   REMARKS
SCOTTSBLUFF    LGT RAIN  69  58  67 SW13      30.04R
ALLIANCE       MOCLDY    73  53  49 SE6       29.99S
CHADRON        MOCLDY    79  55  43 SE3       29.94R HAZE
KIMBALL        LGT RAIN  64  58  82 NW12      30.09R
SIDNEY         PTCLDY    76  49  38 E7        30.04R
$$

NEZ057>060-069>072-079>082-010200-
SOUTHWEST NEBRASKA

CITY           SKY/WX    TMP DP  RH WIND       PRES   REMARKS
NORTH PLATTE   PTCLDY    77  68  73 E7        29.90S
IMPERIAL       MOCLDY    82  60  47 N8        29.92S
LEXINGTON      CLEAR     80  70  70 NE6       29.89F
MCCOOK         CLEAR     85  63  47 NE8       29.86S
OGALLALA       CLOUDY    81  56  42 NE9       29.95R
$$

NEZ005>010-023>029-035>040-094-010200-
NORTH CENTRAL NEBRASKA

CITY           SKY/WX    TMP DP  RH WIND       PRES   REMARKS
VALENTINE      MOCLDY    74  60  61 N6        29.94F
AINSWORTH      MOCLDY    74  65  74 N6        29.93S
BROKEN BOW     PTCLDY    82  67  60 SE6       29.90F
O`NEILL        PTCLDY    82  70  67 E6        29.89S
ORD            CLEAR     83  65  54 SE8       29.88S
THEDFORD       CLOUDY    79  61  53 NE3       29.96R
$$

NEZ041-046>049-061>064-073>077-083>087-010200-
SOUTH CENTRAL NEBRASKA

CITY           SKY/WX    TMP DP  RH WIND       PRES   REMARKS
GRAND ISLAND   CLEAR     81  69  67 E6        29.90S
AURORA         CLEAR     77  73  87 E6        29.89S
HASTINGS       CLEAR     83  65  54 SE8       29.89R
HEBRON         CLEAR     81  64  56 SE5       29.88S
HOLDREGE       CLEAR     80  64  58 SE7       29.88F
KEARNEY *      CLEAR     79  66  65 E7        29.89S
YORK           CLEAR     75  72  88 CALM      29.90R
$$

NEZ011>018-030>034-042>045-010200-
NORTHEAST NEBRASKA

CITY           SKY/WX    TMP DP  RH WIND       PRES   REMARKS
NORFOLK        CLEAR     78  70  76 SE8       29.89S
ALBION         CLEAR     77  70  78 SE6       29.90S
BLAIR          CLEAR     77  66  69 CALM      29.91S
COLUMBUS *     CLEAR     81  68  65 CALM      29.89S
FREMONT        CLEAR     78  68  72 SE8       29.90S
TEKAMAH        CLEAR     75  71  87 SE3       29.89F
WAYNE          CLEAR     74  70  86 SE5       29.90S
$$

NEZ050>053-065>068-078-088>093-010200-
SOUTHEAST NEBRASKA

CITY           SKY/WX    TMP DP  RH WIND       PRES   REMARKS
LINCOLN        CLEAR     83  68  60 SE7       29.89S
OMAHA EPPLEY   PTCLDY    80  69  69 SE6       29.90S
BEATRICE       CLEAR     82  70  67 SE5       29.89S
FALLS CITY     CLEAR     78  71  79 SE7       29.90S
NEBRASKA CITY  CLEAR     79  66  65 SE6       29.91S
PLATTSMOUTH    CLEAR     76  68  75 SE6       29.90F
$$

NEZ044-045-051>053-067-010200-
OMAHA AREA

CITY           SKY/WX    TMP DP  RH WIND       PRES   REMARKS
OMAHA EPPLEY   PTCLDY    80  69  69 SE6       29.90S
BLAIR          CLEAR     77  66  69 CALM      29.91S
FREMONT        CLEAR     78  68  72 SE8       29.90S
MILLARD        CLEAR     80  69  70 CALM      29.89S
OFFUTT AFB     CLEAR     76  70  80 E6        29.89F
PLATTSMOUTH    CLEAR     76  68  75 SE6       29.90F
WAHOO          FAIR      76  72  86 E5        29.90R
$$



USA.gov is the U.S. government's official web portal to all federal, state and local government web resources and services.